Lapse_Rate
2.3 1.9 1.7 0.7 0.0 -0.5 -0.7 -1.3 -1.9 -2.0 -2.4 -2.2 -2.4 -2.6 -3.3 -4.3 -5.1 -2.1 2.1 3.5 1.5 -2.1 -0.4 0.9 3.7 4.5 5.1 6.3 6.1 5.4 6.5 6.5 6.5 6.5 6.5 7.0 6.6 6.8 6.3 7.4 4.4 5.2 6.6 7.4 5.1
3.1 2.5 1.9 1.4 0.3 -0.2 -0.7 -1.2 -2.0 -2.1 -2.2 -2.6 -2.6 -2.6 -3.1 -4.3 -4.1 -0.8 2.1 -0.4 -1.4 -0.9 2.6 4.1 4.4 5.3 6.4 6.5 6.4 6.8 6.5 6.5 6.6 6.6 6.5 6.8 6.9 7.2 7.1 7.1 7.0 6.2 5.7 5.4 5.0
4.1 3.2 2.2 1.7 1.2 0.4 -0.3 -1.2 -1.9 -1.9 -2.0 -2.9 -2.9 -2.9 -2.9 -3.7 1.7 5.8 0.6 -1.7 -1.0 0.1 4.1 4.7 4.5 6.1 6.9 6.4 6.8 6.9 6.5 6.5 6.7 7.1 7.2 6.9 6.9 7.4 6.9 6.5 7.2 7.0 5.6 5.1 5.3
4.8 4.2 2.5 1.9 1.8 0.9 0.2 -1.0 -1.4 -1.8 -1.9 -2.6 -3.2 -3.1 -3.2 -1.0 6.5 3.8 -1.0 -1.4 -0.5 2.1 5.4 5.4 5.6 6.5 6.7 6.5 7.0 6.5 6.9 6.9 7.0 7.1 7.0 6.7 7.4 7.1 7.2 7.3 7.8 4.2 5.6 5.9 6.4
5.0 4.6 3.7 2.4 1.7 1.3 0.4 -0.5 -1.1 -1.4 -1.6 -2.2 -2.6 -2.5 0.1 4.3 3.6 0.1 -0.8 -0.8 1.3 4.2 5.9 5.7 6.4 6.2 6.5 6.8 6.9 6.5 6.6 7.0 7.1 7.0 7.3 6.9 7.1 7.0 7.3 7.6 8.0 7.4 7.0 6.8 7.7
5.2 5.0 4.5 3.5 2.0 1.4 0.5 -0.3 -0.9 -1.2 -1.3 -1.8 -2.1 -2.1 2.4 6.5 2.8 1.4 1.3 1.2 2.9 4.3 5.0 5.8 6.0 5.7 6.6 6.8 6.6 6.9 6.9 6.9 7.1 7.2 7.3 6.8 7.0 7.2 7.4 7.8 7.4 7.3 7.6 7.6 7.3
5.5 5.4 5.1 4.1 3.0 1.4 0.5 -0.3 -0.8 -0.9 -1.3 -1.2 -1.4 -0.4 2.1 3.3 2.2 1.2 0.7 3.2 2.9 4.5 5.1 4.8 5.7 6.4 6.0 6.6 6.2 6.9 6.5 6.5 6.9 7.1 6.7 7.2 6.5 6.5 7.7 8.0 7.5 7.6 7.7 7.9 7.6
5.7 5.6 5.3 4.7 3.4 1.3 0.2 -0.4 -0.7 -0.8 -0.8 -0.9 -0.9 0.5 2.8 1.2 0.4 1.3 1.7 4.4 3.9 4.1 5.3 5.1 5.8 6.6 6.9 6.8 6.9 6.5 6.5 6.5 6.5 6.9 6.9 6.8 6.5 6.7 7.6 7.7 7.4 7.4 7.5 7.9 7.8
5.1 5.7 5.5 5.0 3.8 1.6 0.1 -0.2 -0.4 -0.8 -0.4 -0.4 0.6 2.4 3.8 3.0 2.4 3.9 3.0 5.4 4.4 4.0 4.8 5.6 6.4 6.3 6.7 6.5 6.5 6.5 6.5 6.5 6.5 7.0 6.5 6.5 6.5 6.8 7.6 7.5 7.3 7.5 7.6 7.8 6.0
4.1 5.5 5.6 5.1 4.3 1.7 0.1 -0.3 -0.5 -0.4 0.9 1.4 3.8 4.7 3.1 5.6 4.9 5.3 2.8 4.7 5.9 4.7 6.4 6.4 6.0 6.5 6.5 6.5 6.5 6.5 6.5 6.5 6.5 6.5 6.5 6.5 6.5 6.7 7.3 7.3 7.2 7.4 7.5 6.3 5.1
3.7 5.1 5.4 5.2 4.6 1.9 -0.4 0.2 4.1 5.1 4.4 4.0 4.4 4.2 4.2 4.8 3.7 4.6 4.2 5.6 6.4 6.3 6.5 6.9 6.5 6.5 6.5 6.5 6.5 6.5 6.5 6.5 6.5 6.5 6.5 6.5 6.5 6.5 7.0 7.1 7.0 7.3 7.4 6.9 6.3
4.8 4.6 5.4 5.2 4.6 1.9 -0.1 2.4 5.5 6.2 6.7 4.4 4.3 4.0 3.5 5.6 5.9 5.2 5.6 6.8 6.3 6.5 6.6 6.5 6.5 6.5 6.5 6.5 6.5 6.5 6.5 6.5 6.5 6.5 6.5 6.5 6.5 6.5 6.8 6.9 7.2 7.3 7.3 7.5 7.4
4.9 4.0 5.2 4.9 4.2 1.2 0.7 2.9 3.9 4.8 6.7 6.0 4.5 5.3 5.2 5.6 5.7 4.9 6.1 5.6 6.5 6.5 6.5 6.5 6.5 6.5 6.5 6.5 6.5 6.5 6.5 6.5 6.5 6.5 6.5 6.5 6.5 6.5 6.6 7.1 7.3 7.5 7.7 7.7 7.0
4.7 3.6 4.8 4.6 3.9 2.0 1.9 3.0 3.3 3.3 6.5 6.5 6.6 5.8 5.4 5.5 6.3 4.7 5.6 6.0 6.5 6.5 6.5 6.5 6.6 6.5 6.5 6.5 6.5 6.5 6.5 6.5 6.5 6.5 6.5 6.5 6.5 6.5 6.5 6.5 6.8 7.2 7.4 7.7 7.2
4.3 3.9 5.0 4.3 4.0 3.5 3.7 2.6 3.2 4.3 6.5 6.5 6.5 7.0 5.9 6.8 6.1 5.6 5.0 6.0 6.5 6.5 6.5 6.5 6.5 6.5 6.5 6.5 6.5 6.5 6.5 6.5 6.5 6.5 6.5 6.5 6.5 6.5 6.5 6.5 6.5 7.1 7.6 7.9 6.9
5.2 4.8 5.4 3.8 3.1 3.0 2.5 2.4 4.4 6.5 6.5 6.5 6.7 6.5 6.5 6.5 6.4 6.4 6.3 5.8 5.9 6.5 6.5 6.5 6.7 6.5 6.5 6.5 6.5 6.5 6.5 6.5 6.5 6.5 6.5 6.5 6.5 6.5 6.5 6.5 6.5 7.2 7.6 7.7 6.5
5.3 5.2 4.9 4.6 5.2 3.0 2.8 4.8 6.5 6.5 6.5 6.5 6.5 6.5 6.5 6.5 6.5 6.5 6.5 6.5 6.5 6.5 6.5 6.5 6.5 6.5 6.5 6.5 6.5 6.5 6.5 6.5 6.5 6.5 6.5 6.5 6.5 6.5 6.5 6.5 6.7 7.1 7.5 7.7 7.4
5.5 5.2 4.7 4.3 3.8 4.3 4.3 6.5 6.5 6.5 6.5 6.5 6.5 6.5 6.5 6.5 6.5 6.5 6.5 6.5 6.5 6.5 6.5 6.5 6.5 6.5 6.5 6.5 6.5 6.5 6.5 6.5 6.5 6.5 6.5 6.5 6.5 6.5 6.5 7.1 7.4 7.6 7.7 7.8 7.2
5.7 5.0 4.1 3.2 3.7 4.8 6.2 6.5 6.5 6.5 6.5 6.5 6.5 6.5 6.5 6.5 6.5 6.5 6.5 6.5 6.5 6.5 6.5 6.5 6.5 6.5 6.5 6.5 6.5 6.5 6.5 6.5 6.5 6.5 6.5 6.5 6.5 6.5 6.5 6.6 7.2 7.4 7.5 7.5 7.4
6.1 5.5 4.9 3.4 3.5 5.9 6.6 6.5 6.5 6.5 6.5 6.5 6.5 6.5 6.5 6.5 6.5 6.5 6.5 6.5 6.5 6.5 6.6 6.5 6.5 6.5 6.5 6.6 6.6 6.5 6.5 6.5 6.5 6.5 6.5 6.5 6.5 6.5 6.5 6.5 6.6 7.0 7.3 7.5 7.4
6.1 6.3 5.0 2.3 4.9 7.0 6.5 6.5 6.5 6.6 6.7 6.5 6.5 6.5 6.5 6.5 6.5 6.5 6.5 6.5 6.5 6.5 6.6 6.5 6.5 6.5 6.5 6.5 6.5 6.5 6.5 6.5 6.5 6.5 6.5 6.5 6.5 6.5 6.5 6.5 6.5 7.1 7.4 7.5 7.6
6.4 6.5 3.6 4.3 6.7 6.7 6.5 6.5 6.0 6.6 6.1 6.5 6.5 6.5 6.5 6.5 6.5 6.5 6.5 6.5 5.8 6.3 6.5 6.5 6.5 6.5 6.5 6.5 6.5 6.5 6.5 6.5 6.5 6.5 6.5 6.5 6.5 6.5 6.5 7.0 7.2 7.3 7.5 7.7 7.1
6.9 6.3 4.5 5.5 6.5 6.5 6.5 6.5 6.6 6.5 6.5 6.5 6.5 6.5 6.5 6.5 6.5 6.5 6.5 6.3 5.7 6.5 6.5 6.5 6.5 6.5 6.5 6.5 6.5 6.5 6.5 6.5 6.5 6.5 6.5 6.5 6.5 6.7 7.0 7.0 7.3 7.3 7.5 7.3 6.6
7.0 6.5 6.7 7.3 6.1 6.5 6.5 6.5 6.5 6.2 6.5 6.5 6.5 6.5 6.5 6.5 6.5 6.5 6.5 6.5 5.8 6.3 3.0 4.7 6.5 6.5 6.5 6.5 6.5 6.5 6.5 6.5 6.5 6.5 6.5 6.5 6.5 6.5 6.5 6.5 7.1 7.4 7.5 7.6 6.7
6.9 6.6 6.9 6.5 6.6 6.5 6.5 6.5 6.5 6.5 6.4 6.2 6.5 6.5 6.5 6.5 6.5 6.5 6.5 6.5 6.4 4.6 6.3 6.5 6.5 6.5 6.5 6.5 6.5 6.5 6.5 6.5 6.5 6.5 6.5 6.5 6.5 6.5 6.5 6.7 7.2 7.3 7.4 6.8 6.5
6.9 6.7 6.8 6.7 6.6 6.5 6.5 6.5 6.5 6.5 6.5 6.5 6.5 6.5 6.5 6.5 6.5 6.5 6.5 6.5 6.5 6.5 6.5 6.5 6.5 6.5 6.5 6.5 6.5 6.5 6.5 6.5 6.5 6.5 6.5 6.5 6.5 6.7 7.2 7.4 7.3 7.3 7.4 7.5 7.7
6.4 6.4 5.9 6.6 6.5 6.5 6.5 6.5 6.5 6.5 5.9 6.1 6.5 6.5 6.5 6.5 5.6 5.2 4.9 5.5 6.3 6.5 6.5 6.5 6.5 6.5 6.5 6.5 6.5 6.5 6.5 6.5 6.5 6.5 6.5 6.5 6.5 6.9 6.7 7.0 7.3 7.4 7.6 7.6 7.9
Wind_Speed
15 16 17 17 18 18 19 19 19 21 22 22 22 22 23 23 22 0 6 2 4 21 14 6 3 3 2 3 1 2 1 3 3 5 1 4 5 1 4 8 8 8 3 15 20
15 16 16 17 18 18 18 18 19 22 22 24 23 24 23 22 4 6 8 2 20 23 11 11 6 5 2 2 1 2 1 4 3 3 2 2 5 7 4 7 8 16 19 20 20
14 15 15 16 17 18 18 17 19 21 22 24 24 24 24 20 4 2 13 7 27 16 7 3 8 4 2 0 3 4 4 4 5 10 7 7 2 4 2 4 5 14 17 17 18
13 14 15 16 17 18 18 17 18 21 22 23 24 23 28 3 2 2 11 10 19 5 7 7 5 5 3 4 4 4 7 7 6 5 1 2 7 9 13 8 5 23 22 18 17
14 14 14 16 16 17 17 17 17 19 21 21 21 20 6 4 7 1 6 8 11 1 6 6 6 5 5 4 4 5 5 5 8 7 11 19 17 10 13 12 16 19 19 18 14
13 15 14 14 16 16 18 18 17 19 21 19 18 18 1 5 1 7 7 5 4 4 6 6 6 5 3 3 6 3 4 6 8 9 10 18 12 5 11 12 14 17 17 13 14
13 13 14 13 15 17 18 18 19 19 21 18 12 5 1 13 6 3 5 2 4 4 5 3 5 3 4 3 3 1 3 3 17 10 4 4 17 12 10 12 15 14 15 13 12
13 14 15 15 16 18 19 20 21 23 21 13 4 3 7 3 1 8 3 3 3 3 1 2 4 1 3 1 3 1 1 2 7 12 5 4 5 9 9 16 14 14 13 14 14
15 13 14 15 16 18 19 23 23 11 3 5 2 2 9 3 3 5 8 5 7 2 3 4 4 2 1 2 1 3 2 2 3 17 1 5 7 7 9 15 13 12 13 13 15
24 13 12 14 16 17 21 24 8 3 5 3 2 3 5 2 2 1 5 6 4 6 4 2 3 2 1 4 5 3 4 4 4 9 18 17 13 10 9 12 12 11 12 11 13
26 13 12 13 14 14 10 4 1 3 3 8 5 3 4 7 3 2 4 7 5 3 6 3 3 8 10 7 3 3 4 6 4 5 7 11 11 9 8 9 11 9 11 12 13
17 16 11 12 13 12 1 1 3 3 8 15 15 10 6 1 4 2 9 8 5 7 6 4 7 10 7 7 4 5 6 4 6 8 6 9 9 8 6 6 8 10 11 12 13
15 24 9 12 14 2 1 4 10 7 4 7 7 6 7 10 7 5 11 5 5 7 8 6 2 9 7 5 6 5 7 10 6 10 8 13 5 5 6 11 9 10 10 11 12
16 28 8 12 1 2 3 5 11 2 3 5 6 7 7 7 4 7 8 5 3 13 10 5 5 6 5 6 8 7 11 15 19 8 3 7 2 5 8 7 8 9 9 11 11
16 23 7 1 3 3 3 14 11 2 3 4 4 4 6 9 7 6 4 3 9 7 7 7 9 7 5 7 9 1 9 16 11 5 6 6 4 4 10 7 9 10 11 11 9
13 12 6 2 1 5 13 13 3 1 7 4 6 6 8 4 2 4 4 3 4 5 1 4 1 4 5 5 8 17 19 9 4 2 2 5 5 5 7 9 13 13 13 12 10
13 14 8 5 3 3 8 2 3 5 3 6 5 6 6 6 4 4 7 5 6 5 4 2 4 1 3 11 10 2 5 3 2 3 2 2 5 4 3 3 14 18 15 13 11
13 23 8 6 2 4 3 3 6 7 6 2 5 11 7 6 3 4 10 9 2 4 5 7 6 7 4 7 9 9 3 4 4 4 3 2 4 3 5 3 10 14 14 13 11
15 2 2 4 13 3 2 8 7 7 4 7 5 8 4 4 5 6 6 11 6 8 5 6 2 1 0 3 4 5 3 3 7 3 2 2 2 4 6 9 12 14 14 13 11
3 2 4 9 17 3 3 8 5 4 4 3 5 5 8 9 5 5 10 6 5 10 2 5 4 2 2 2 10 2 9 3 2 3 3 2 2 2 8 9 10 12 13 12 11
3 3 1 13 5 3 7 8 5 9 7 5 5 5 5 7 5 6 12 2 6 5 3 4 2 2 0 3 6 4 3 6 5 2 1 1 3 2 8 13 14 13 12 13 12
3 3 4 9 6 3 9 7 4 6 5 7 3 3 7 6 4 4 7 5 6 7 8 1 4 5 2 1 0 1 4 3 3 3 2 1 3 7 7 13 13 12 11 11 11
2 2 4 1 7 5 4 11 4 5 4 2 5 4 3 6 5 3 5 2 4 5 7 7 2 4 2 1 2 6 3 5 6 3 4 2 4 5 11 12 10 14 12 11 12
3 5 3 4 2 6 12 5 11 8 10 7 3 3 4 4 3 4 4 1 3 3 5 7 3 4 6 4 4 5 3 3 2 3 6 2 8 6 11 12 12 11 12 12 11
3 5 5 6 9 5 7 5 5 8 7 4 1 4 6 5 3 5 4 4 4 3 4 3 5 4 7 4 6 5 5 4 4 5 1 10 11 13 13 13 11 13 13 13 12
3 3 2 4 13 13 5 12 6 4 4 4 4 6 5 8 6 7 8 3 5 2 3 3 3 2 8 8 11 9 9 11 8 9 13 14 11 7 10 12 13 13 14 13 11
3 3 1 5 10 11 5 5 14 3 8 6 2 4 5 5 5 7 6 7 7 6 4 3 6 3 3 2 5 5 2 3 5 3 11 11 8 11 13 12 13 14 13 13 12
Wind_Direction
332 335 339 340 338 335 333 334 332 334 334 332 332 330 325 326 321 250 251 213 197 160 118 138 103 113 121 102 74 136 219 220 224 181 191 175 191 115 82 102 65 12 57 127 137
329 331 334 336 336 335 333 334 332 331 333 331 331 328 324 328 301 271 261 278 148 153 134 162 148 132 104 91 112 170 211 221 258 242 257 229 218 159 161 126 72 74 93 118 133
327 325 328 333 334 334 330 331 332 330 331 330 329 327 324 324 288 198 324 246 166 175 140 108 131 119 135 121 181 173 223 219 262 238 261 286 166 70 88 110 124 145 136 133 143
319 323 327 329 331 330 326 329 331 328 328 330 327 326 322 286 334 4 346 150 167 185 121 117 133 131 152 201 191 236 225 240 281 49 27 295 100 72 47 351 156 140 141 139 142
314 323 324 325 327 326 324 324 327 325 322 327 324 326 343 1 257 36 53 113 153 163 155 152 157 138 185 206 165 231 261 210 356 35 73 81 71 84 60 72 108 128 133 135 137
310 316 316 323 324 324 321 321 321 319 316 321 324 320 320 293 81 111 96 129 197 188 173 158 181 187 172 221 197 215 253 25 10 50 87 85 49 84 60 98 109 120 122 128 130
296 304 311 322 320 318 318 318 315 310 307 309 317 304 129 245 121 277 321 219 182 189 163 210 153 174 168 198 240 262 281 130 21 350 89 149 39 71 90 102 103 105 113 108 110
288 304 315 318 320 318 318 315 308 305 295 290 287 263 250 222 258 294 164 241 210 214 255 172 153 197 224 181 29 138 85 190 30 3 28 138 92 55 100 105 92 90 89 85 80
287 295 309 315 320 321 319 311 309 319 244 128 127 244 264 322 267 250 184 193 147 159 288 124 142 160 105 162 325 18 206 84 121 20 206 54 119 94 101 107 103 100 97 97 91
332 287 304 314 318 325 324 308 296 292 107 166 274 308 251 222 263 196 188 177 139 138 102 107 67 120 107 180 214 207 134 75 43 20 68 78 106 98 98 111 119 111 107 102 96
339 278 296 308 318 331 346 348 266 196 220 209 188 260 295 310 253 216 181 157 129 145 165 170 167 201 198 195 174 144 103 116 110 134 77 98 112 115 124 125 117 115 117 109 100
327 301 290 306 316 327 57 268 66 317 298 236 239 256 268 22 303 241 155 153 166 178 133 132 214 211 201 184 149 137 138 119 84 110 92 122 101 113 122 107 118 129 119 116 113
323 327 289 307 315 49 288 248 336 340 255 278 200 218 224 174 217 241 174 148 151 155 180 170 267 171 173 155 179 196 201 179 144 114 91 135 133 152 94 105 106 114 121 127 128
314 331 279 312 264 323 254 314 316 274 299 244 208 245 170 181 224 205 196 146 161 188 159 205 164 155 183 210 191 242 226 150 141 159 151 208 172 179 159 128 130 141 143 142 131
312 335 248 262 286 268 332 311 310 126 272 165 168 155 160 189 142 204 182 96 165 165 170 208 165 169 187 218 174 5 135 133 139 104 140 170 243 115 155 176 175 167 157 148 142
304 331 244 127 201 255 314 306 177 157 246 181 142 166 157 226 139 113 145 73 131 128 134 165 211 191 170 58 131 123 110 97 88 121 225 159 229 160 187 194 179 170 167 158 151
307 326 265 169 230 319 321 298 141 211 291 176 172 158 188 165 135 126 162 164 153 127 163 173 223 226 142 83 157 133 156 103 156 203 252 140 192 47 253 224 186 172 168 162 156
302 325 223 207 197 4 329 159 203 216 217 102 127 135 188 150 170 135 150 170 119 106 139 171 202 188 176 169 183 184 195 164 207 201 154 147 237 76 13 123 148 157 155 153 156
331 252 226 229 208 186 213 197 213 215 198 155 98 148 185 205 142 149 174 180 164 189 155 165 225 35 154 143 163 172 185 98 103 55 178 144 113 125 93 101 126 140 151 158 161
304 226 232 180 152 167 211 212 240 232 322 189 149 168 169 177 150 154 165 186 195 196 186 189 122 73 155 133 55 136 134 135 77 155 234 175 216 106 177 157 147 153 161 159 159
252 229 212 146 142 194 212 219 276 267 239 207 182 156 169 154 144 154 182 145 203 135 150 152 104 146 101 11 147 141 123 65 110 48 224 220 120 37 193 173 168 168 165 164 159
251 199 143 152 172 195 207 204 301 278 224 251 210 132 154 137 138 134 171 188 160 142 157 158 105 80 91 358 33 76 109 131 114 173 69 32 107 352 205 165 161 157 157 153 150
250 231 154 194 197 193 226 235 288 314 295 209 222 203 169 139 122 129 127 41 176 131 158 175 39 103 42 112 130 64 40 88 97 110 166 186 129 34 124 134 144 144 144 144 146
261 191 147 218 230 174 195 239 227 262 258 263 262 114 127 117 30 140 107 110 125 104 89 94 89 135 172 172 118 102 76 86 92 138 148 117 138 143 142 133 133 132 137 142 151
242 238 159 177 207 210 187 197 189 227 221 212 217 216 160 116 109 116 127 134 64 145 62 91 95 83 43 70 88 91 93 80 91 116 202 150 143 164 158 148 144 138 139 148 158
278 236 163 187 173 203 197 214 197 253 254 246 212 199 188 148 165 167 136 149 160 75 83 35 118 110 51 62 100 92 83 92 85 109 91 123 118 142 123 120 138 150 155 159 160
203 264 46 173 184 187 204 203 217 232 248 237 262 151 165 192 132 108 76 88 121 131 115 92 135 104 106 61 109 86 146 127 113 104 139 143 148 145 141 147 155 156 161 158 154